ZHONG REN 121 arrivant au mouillage en rade des Vignettes a Toulon le 05 mai 2024
BBC TOPAZ , arrivant à la Seyne sur Mer le 05 mai 2024
CAPO NERo , a quai à Port la Nouvelle le 14 septembre 2023
ABU SAMRAH , a quai et apparellant de la Seyne sur Mer le 19 avril 2024
ULUSOY 5, arrivant à la Seyne sur Mer le 27 avril 2024
CANKA arrivant à la Seyne sur Mer le 07 avril 2024
CANPPEE en rade de Brest
NERODIA , sur le Rhin au passage de Cologne ,allemagne , le 31 mai 2019
CAPA ALEXANDROS , appareillant de Fos sur MER le 08 septembre 2015
PROJET & INNATENDU , sur la SEINE au passage de Confant ST Honorine le 30 septembre 2014
MANISA BALU , a quai à la Seyne sur Mer le 21 aout 2023
AEGEA , en Transit dans le golfe de Fos sur Mer le 08 septemdre 2015
NEPTUNE OKEANIS , arrivant à la Seyne sur Mer le 9 aout 2024
CDRY WHITE , a quai à la Seyne sur Mer le 13 mars 2023
JUMBO KINETIC , au mouillage en petite rade de Toulon le 27 juillet 2021
JULIETA , a quai à la Seyne sur Mer le 18 novenbre 2015
PONTIAS , appareillant du port de Lavera en rade de port de Bouc le 08 septembre 2022
VICTORIA , a quai à la Seyne sur Mer le 20 mars 2023
LUCITA , arrivant a la Seyne sur Mer le 24 janvier 2024
PRINCE I , a quai à LAVERA le 24 juin 2015
SUPER SERVAN 4 , en petite rade de Toulon le 17 aout 2021
ERK IZMIR , a quai à la Seyne sur mer le 10 aout 2024
LIDER HALUK , a quai à la Seyne sur Mer le 24 octobre 2023
/image%2F0419228%2F20240501%2Fob_17894a_roro-cargos-1.jpg)
/image%2F0419228%2F20240501%2Fob_94b1d9_roro-cargos-2.jpg)
/image%2F0419228%2F20240501%2Fob_365242_roro-cargos-3.jpg)
/image%2F0419228%2F20240511%2Fob_40b7c1_aa.jpg)
/image%2F0419228%2F20240511%2Fob_f89116_bb.jpg)
/image%2F0419228%2F20240511%2Fob_46d49e_zz.jpg)
/image%2F0419228%2F20240518%2Fob_1a13de_aa.jpg)
/image%2F0419228%2F20240518%2Fob_9993f8_bb.jpg)
/image%2F0419228%2F20240518%2Fob_d37650_zz.jpg)
/image%2F0419228%2F20240604%2Fob_16ab9c_aa.jpg)
/image%2F0419228%2F20240604%2Fob_a8763f_bb.jpg)
/image%2F0419228%2F20240604%2Fob_edac99_zz.jpg)
/image%2F0419228%2F20240622%2Fob_6a89b6_aa-copie.jpg)
/image%2F0419228%2F20240622%2Fob_b6e2d0_bb-copie.jpg)
/image%2F0419228%2F20240622%2Fob_23c8e5_zz-copie.jpg)
/image%2F0419228%2F20240624%2Fob_1458e5_aa.jpg)
/image%2F0419228%2F20240624%2Fob_166f5f_bb.jpg)
/image%2F0419228%2F20240624%2Fob_9ece9c_zz.jpg)
/image%2F0419228%2F20240704%2Fob_598341_aa.jpg)
/image%2F0419228%2F20240704%2Fob_7cc7c9_bb.jpg)
/image%2F0419228%2F20240704%2Fob_59e77e_zz.jpg)
/image%2F0419228%2F20240704%2Fob_aca866_aa.jpg)
/image%2F0419228%2F20240704%2Fob_d0089b_bb.jpg)
/image%2F0419228%2F20240704%2Fob_c6f6ff_c.jpg)
/image%2F0419228%2F20240704%2Fob_cceeb4_d.jpg)
/image%2F0419228%2F20240704%2Fob_8fd99d_zz.jpg)
/image%2F0419228%2F20240710%2Fob_ca4efe_aa.jpg)
/image%2F0419228%2F20240710%2Fob_8775b0_bb.jpg)
/image%2F0419228%2F20240710%2Fob_8c023c_zz.jpg)
/image%2F0419228%2F20240720%2Fob_0f86c9_aa.jpg)
/image%2F0419228%2F20240720%2Fob_4e5efa_bb.jpg)
/image%2F0419228%2F20240720%2Fob_651c4d_zz.jpg)
/image%2F0419228%2F20240805%2Fob_1a6068_bb.jpg)
/image%2F0419228%2F20240805%2Fob_953ff3_zz.jpg)
/image%2F0419228%2F20240808%2Fob_15c220_aa.jpg)
/image%2F0419228%2F20240808%2Fob_7d8354_bb.jpg)
/image%2F0419228%2F20240808%2Fob_cea11e_zz.jpg)
/image%2F0419228%2F20240811%2Fob_53704f_aa.jpg)
/image%2F0419228%2F20240811%2Fob_36030d_bb.jpg)
/image%2F0419228%2F20240811%2Fob_c03431_zz.jpg)
/image%2F0419228%2F20240815%2Fob_8a5d79_aa.jpg)
/image%2F0419228%2F20240815%2Fob_b15565_bb.jpg)
/image%2F0419228%2F20240815%2Fob_aa7312_zz.jpg)
/image%2F0419228%2F20240827%2Fob_984eec_aa.jpg)
/image%2F0419228%2F20240827%2Fob_10ea4f_bbb.jpg)
/image%2F0419228%2F20240827%2Fob_5cec9e_zz.jpg)
/image%2F0419228%2F20240901%2Fob_d44fef_aa.jpg)
/image%2F0419228%2F20240901%2Fob_7edc80_bb.jpg)
/image%2F0419228%2F20240901%2Fob_d044e3_zz.jpg)
/image%2F0419228%2F20240901%2Fob_66ab45_aa.jpg)
/image%2F0419228%2F20240901%2Fob_ad16bd_bb.jpg)
/image%2F0419228%2F20240901%2Fob_9e0237_zz.jpg)
/image%2F0419228%2F20240902%2Fob_e947d8_aa.jpg)
/image%2F0419228%2F20240902%2Fob_38bee5_zz.jpg)
/image%2F0419228%2F20240924%2Fob_00b603_aa.jpg)
/image%2F0419228%2F20240924%2Fob_4b75f5_bb.jpg)
/image%2F0419228%2F20240924%2Fob_29e583_zz.jpg)
/image%2F0419228%2F20240929%2Fob_e2e0c7_aa.jpg)
/image%2F0419228%2F20240929%2Fob_ffe99c_bb.jpg)
/image%2F0419228%2F20240929%2Fob_a988f7_zz.jpg)
/image%2F0419228%2F20241022%2Fob_04d1fd_aa.jpg)
/image%2F0419228%2F20241022%2Fob_d98915_bb.jpg)
/image%2F0419228%2F20241022%2Fob_b032d0_zz.jpg)
/image%2F0419228%2F20241026%2Fob_1fde9a_aa.jpg)
/image%2F0419228%2F20241026%2Fob_4b7ad6_bb.jpg)
/image%2F0419228%2F20241026%2Fob_4c7165_zz.jpg)
/image%2F0419228%2F20241101%2Fob_4f60a3_aa.jpg)
/image%2F0419228%2F20241101%2Fob_d7f98d_bb.jpg)
/image%2F0419228%2F20241105%2Fob_2fc8b7_aa.jpg)
/image%2F0419228%2F20241105%2Fob_f29a46_bb.jpg)
/image%2F0419228%2F20241105%2Fob_3f91f6_p1560132.jpg)
/image%2F0419228%2F20241105%2Fob_26ed9b_p1560133.jpg)
/image%2F0419228%2F20241105%2Fob_66ada1_p1560135.jpg)
/image%2F0419228%2F20241105%2Fob_a80b36_p1560136.jpg)
/image%2F0419228%2F20241105%2Fob_ff37bf_p1560138.jpg)
/image%2F0419228%2F20241105%2Fob_89d4d8_p1560139.jpg)
/image%2F0419228%2F20241105%2Fob_f573bc_p1560140.jpg)
/image%2F0419228%2F20241105%2Fob_855819_p1560141.jpg)
/image%2F0419228%2F20241105%2Fob_ccd380_p1560143.jpg)
/image%2F0419228%2F20241105%2Fob_7017e5_p1560144.jpg)
/image%2F0419228%2F20241105%2Fob_8e3b0f_p1560145.jpg)
/image%2F0419228%2F20241105%2Fob_263b70_p1560148.jpg)
/image%2F0419228%2F20241105%2Fob_0a143a_p1560149.jpg)
/image%2F0419228%2F20241105%2Fob_69e710_zz.jpg)
/image%2F0419228%2F20241115%2Fob_613d8e_aa.jpg)
/image%2F0419228%2F20241115%2Fob_896162_bb.jpg)
/image%2F0419228%2F20241115%2Fob_a7dca0_zz.jpg)